Mecheria, Algeria

12:05 AM CET on August 25, 2019 (GMT +0100)
Mecheria

Weather History for DAAY - June, 2019

Change the Weather History Date:

Monday, June 3, 2019

  Actual Average Record
Temperature  
Mean Temperature 76 °F -  
Max Temperature 92 °F - - ()
Min Temperature 61 °F - - ()
Cooling Degree Days 12    
Growing Degree Days 26 (Base 50)    
Moisture  
Dew Point 46 °F    
Average Humidity 33    
Maximum Humidity 63    
Minimum Humidity 7    
Precipitation  
Precipitation 0.00 in - - ()
Sea Level Pressure  
Sea Level Pressure 30.21 in    
Wind  
Wind Speed 7 mph ()    
Max Wind Speed 16 mph    
Max Gust Speed -    
Visibility 6.0 miles    
Events      
T = Trace of Precipitation, MM = Missing Value Source: Averaged Metar Reports

Daily Weather History Graph

Daily Weather History Graph

Search for Another Location

Airport or City:

Astronomy

Jun. 03, 2019 Rise Set
Actual Time 5:51 AM CET 8:06 PM CET
Civil Twilight 5:22 AM CET 8:35 PM CET
Nautical Twilight 4:48 AM CET 9:10 PM CET
Astronomical Twilight 4:10 AM CET 9:48 PM CET
Moon 5:58 AM CET (6/3) 8:17 PM CET (6/3)
Length of Visible Light 15h 12m
Length of Day
14h 15m
New Moon, 0% of the Moon is Illuminated
Jun 3
New Moon
Jun 10
First Quarter
Jun 17
Full
Jun 25
Last Quarter
Jul 2
New

Hourly Weather History & Observations

Time (CET) Temp. Heat Index Dew Point Humidity Pressure Visibility Wind Dir Wind Speed Gust Speed Precip Events Conditions
12:00 AM 66.2 °F - 50.0 °F 56% 30.24 in 5.0 mi Calm Calm - N/A   Partly Cloudy
2:00 AM 68.0 °F - 51.8 °F 56% 30.24 in - Calm Calm - N/A   Clear
3:00 AM 66.2 °F - 51.8 °F 60% 30.21 in - Calm Calm - N/A   Clear
4:00 AM 62.6 °F - 50.0 °F 63% 30.27 in - Calm Calm - N/A   Clear
5:00 AM 62.6 °F - 50.0 °F 63% 30.21 in - Calm Calm - N/A   Clear
7:00 AM 66 °F - 50 °F 45%  in 6 mi SSW 11.5 mph - -  
7:00 AM 66.2 °F - 50.0 °F 56% 30.21 in - SSW 11.5 mph - N/A   Clear
8:00 AM 73.4 °F - 53.6 °F 50% 30.21 in - SSW 11.5 mph - N/A   Clear
9:00 AM 77.0 °F - 53.6 °F 44% 30.24 in - SW 13.8 mph - N/A   Clear
10:00 AM 81 °F - 54 °F 29%  in 6 mi SW 13.8 mph - -  
10:00 AM 80.6 °F 80.3 °F 53.6 °F 39% 30.24 in - SW 13.8 mph - N/A   Clear
11:00 AM 84.2 °F 82.8 °F 53.6 °F 35% 30.24 in - West 13.8 mph - N/A   Clear
12:00 PM 86.0 °F 84.2 °F 53.6 °F 33% 30.24 in - West 11.5 mph - N/A   Clear
1:00 PM 88 °F - 50 °F 17%  in 6 mi West 11.5 mph - -   Scattered Clouds
1:00 PM 87.8 °F - 50.0 °F 27% 30.24 in 6.2 mi West 11.5 mph - N/A   Partly Cloudy
3:00 PM 91.4 °F - 42.8 °F 18% 30.21 in 6.2 mi West 16.1 mph - N/A   Partly Cloudy
4:00 PM 92 °F - 38 °F 8%  in 6 mi West 11.5 mph - -   Scattered Clouds
4:00 PM 93.2 °F - 37.4 °F 14% 30.18 in 6.2 mi West 11.5 mph - N/A   Partly Cloudy
5:00 PM 91.4 °F - 37.4 °F 15% 30.15 in 6.2 mi West 13.8 mph - N/A   Partly Cloudy
6:00 PM 91.4 °F - 35.6 °F 14% 30.15 in 6.2 mi West 16.1 mph - N/A   Partly Cloudy
7:00 PM 89 °F - 33 °F 7%  in 6 mi WNW 11.5 mph - -   Scattered Clouds
7:00 PM 89.6 °F - 33.8 °F 14% 30.15 in 6.2 mi WNW 11.5 mph - N/A   Partly Cloudy
8:00 PM 86.0 °F - 33.8 °F 15% 30.15 in 6.2 mi WNW 11.5 mph - N/A   Partly Cloudy
11:00 PM 75.2 °F - 37.4 °F 25% 30.21 in 6.2 mi North 13.8 mph - N/A   Partly Cloudy